Home > Weather > Perg > Past weeks

Flag for Austria Past Weather in Perg, Upper Austria, Austria — Yesterday and Last 2 Weeks

Now
64 °F

Passing clouds.


Feels Like: 64 °F
Forecast: 56 / 80 °F
Wind: 1 mph from North

Location: Linz / Hoersching-Flughafen

Current Time: Aug 23, 2016 at 11:09:32 PM

Latest Report: Aug 23, 2016 at 10:20 PM


Visibility: N/A

Pressure: 30.33 "Hg

Humidity: 83%

Dew Point: 59 °F

Location of PergLocation

Past Weather in Perg — Graph

°F

Perg Temperature Yesterday

Maximum temperature yesterday: 68 °F (at 2:20 PM)
Minimum temperature yesterday: 54 °F (at 5:20 AM)
Average temperature yesterday: 61 °F

High & Low Weather Summary for the Past Weeks

 TemperatureHumidityPressure
High82 °F (Aug 14, 3:20 PM)100% (Aug 9, 5:20 AM)30.42 "Hg (Aug 9, 5:20 AM)
Low48 °F (Aug 12, 2:20 AM)30% (Aug 20, 5:20 PM)29.80 "Hg (Aug 18, 4:20 PM)
Average64 °F77%30.12 "Hg
* Reported Aug 8 9:20 PM — Aug 23 9:50 PM, Perg, Weather by CustomWeather, © 2016

Note: Actual official high and low records may vary slightly from our data, if they occured in-between our weather recording intervals... More about our weather records

Advertising

Perg Weather History for the Previous 24 Hours

Scroll right to see more
 ConditionsComfort  
Time TempWeatherWind HumidityBarometerVisibility
9:50 PM
Tue, Aug 23
66 °FPassing clouds.1 mph78%30.33 "HgN/A
9:20 PM68 °FPassing clouds.1 mph73%30.33 "HgN/A
8:50 PM70 °FMild.1 mph69%30.33 "HgN/A
8:20 PM70 °FPassing clouds.1 mph64%30.33 "HgN/A
7:50 PM73 °FPassing clouds.3 mph57%30.33 "HgN/A
7:20 PM75 °FScattered clouds.3 mph54%30.33 "HgN/A
6:50 PM75 °FScattered clouds.6 mph54%30.30 "HgN/A
6:20 PM77 °FScattered clouds.6 mph54%30.33 "HgN/A
5:50 PM77 °FScattered clouds.7 mph51%30.33 "HgN/A
5:20 PM77 °FScattered clouds.7 mph47%30.33 "HgN/A
4:50 PM77 °FScattered clouds.6 mph47%30.33 "HgN/A
4:20 PM77 °FPassing clouds.6 mph47%30.33 "HgN/A
3:50 PM75 °FPassing clouds.6 mph47%30.33 "HgN/A
3:20 PM75 °FPassing clouds.6 mph50%30.36 "HgN/A
2:50 PM75 °FPassing clouds.7 mph50%30.36 "HgN/A
2:20 PM75 °FPassing clouds.7 mph50%30.36 "HgN/A
1:50 PM73 °FPassing clouds.8 mph53%30.36 "HgN/A
1:20 PM73 °FPassing clouds.7 mph50%30.36 "HgN/A
12:50 PM72 °FPassing clouds.8 mph57%30.36 "HgN/A
12:20 PM72 °FPassing clouds.6 mph61%30.39 "HgN/A
11:50 AM70 °FPassing clouds.7 mph60%30.39 "HgN/A
11:20 AM68 °FPassing clouds.6 mph64%30.39 "HgN/A
10:50 AM66 °FPassing clouds.3 mph68%30.42 "HgN/A
10:20 AM66 °FPassing clouds.5 mph73%30.42 "HgN/A
9:50 AM64 °FPassing clouds.3 mph73%30.42 "HgN/A
9:20 AM63 °FPassing clouds.3 mph77%30.42 "HgN/A
8:50 AM61 °FPassing clouds.1 mph83%30.42 "HgN/A
8:20 AM59 °FPassing clouds.1 mph82%30.42 "HgN/A
7:50 AM57 °FFog.1 mph88%30.42 "HgN/A
7:20 AM55 °FFog.1 mph88%30.42 "HgN/A
6:50 AM54 °FPassing clouds.5 mph94%30.39 "HgN/A
6:20 AM52 °FFog.3 mph94%30.39 "HgN/A
5:50 AM52 °FPassing clouds.5 mph100%30.39 "HgN/A
5:20 AM54 °FPassing clouds.5 mph94%30.39 "HgN/A
4:50 AM54 °FClear.3 mph94%30.39 "Hg10 mi
4:20 AM54 °FClear.3 mph94%30.39 "Hg10 mi
3:50 AM54 °FClear.3 mph94%30.39 "Hg10 mi
3:20 AM54 °FFog.3 mph94%30.39 "Hg4 mi
2:50 AM54 °FFog.5 mph100%30.39 "Hg4 mi
2:20 AM55 °FCool.2 mph88%30.39 "HgN/A
1:50 AM55 °FCool.6 mph88%30.39 "HgN/A
1:20 AM55 °FPassing clouds.8 mph88%30.39 "HgN/A
12:50 AM57 °FCool.7 mph88%30.39 "HgN/A
11:50 PM
Mon, Aug 22
57 °FCool.5 mph82%30.39 "HgN/A
11:20 PM59 °FCool.5 mph82%30.39 "HgN/A
Weather by CustomWeather, © 2016

See weather overviewHow to use our weather pages